User: anonymous   Login
Location: Unspecified
(0.0000°N, 0.0000°E)
Time: 23:09:32
(UTC+01:00)
Language:

BREEZE-M DEB (TANK) - Orbit

View from above orbital plane
View from above orbital plane
View from above satellite
View from above satellite

Ground track
Ground track

The orbit data is extracted from the following two-line orbital elements,

1 33374U 08044B   17080.26046582 +.00001426 +00000-0 +42486-3 0  9995
2 33374 049.4914 345.5764 5444819 031.6611 351.8686 04.86835924149729
Epoch (UTC): 21 March 2017 06:15:04
Eccentricity: 0.5444819
inclination: 49.4914°
perigee height: 320 km
apogee height: 16334 km
right ascension of ascending node: 345.5764°
argument of perigee: 31.6611°
revolutions per day: 4.86835924
mean anomaly at epoch: 351.8686°
orbit number at epoch: 14972

The dashed part of the orbit path shows where the satellite is in the earth's shadow,  

DLR